Terminal Aerodrome Forecast
Issued by NWS Louisville, KY

Home | Current Version | Previous Version | Text Only | Print | Product List | Glossary On
Versions: 1 2 3 4 5 6 7 8 9 10 11 12 13 14 15 16 17 18 19 20 21
000
FTUS43 KLMK 172300
TAFBWG
TAF
KBWG 172320Z 1800/1824 00000KT P6SM BKN070
     FM181000 00000KT 5SM BR BKN050
      TEMPO 1811/1813 2SM BR
     FM181400 06005KT P6SM SCT040=

USA.gov is the U.S. government's official web portal to all federal, state and local government web resources and services.